Preview of NWS' New Version of Forecast
This preview is not operational and should not be used for support decisions.

Regional Weather Roundup (RWR)

Issued by National Weather Service (NWS)

                            
000
ASUS46 KSEW 171510
RWRWA 

WASHINGTON REGIONAL WEATHER ROUNDUP
NATIONAL WEATHER SERVICE SEATTLE WA
800 AM PDT WED JUL 17 2019

NOTE:"FAIR" INDICATES FEW OR NO CLOUDS BELOW 12,000 FEET WITH NO 
SIGNIFICANT WEATHER AND/OR OBSTRUCTIONS TO VISIBILITY.

WAZ507-509-555>559-171600-
SEATTLE, TACOMA, EVERETT, AND VICINITY
  
CITY           SKY/WX    TMP DP  RH WIND       PRES   REMARKS
EVERETT        CLOUDY    60  56  86 SE15G23   29.89F                  
BOEING FIELD   CLOUDY    64  54  69 S9        29.91S                  
RENTON         CLOUDY    65  54  67 S14G22    29.90F                  
SEATAC AIRPORT CLOUDY    63  53  70 S12       29.92R                  
JBLM-MCCHORD   CLOUDY    63  58  84 S12       29.92S                  
PUYALLUP       CLOUDY    64  55  72 CALM      29.92F                  
BREMERTON      CLOUDY    59  55  87 S13G22    29.90S                  
JBLM-FT LEWIS  NOT AVBL                                               
TACOMA NARROWS CLOUDY    61  54  77 S9        29.92R                  
$$
 
WAZ001-503-506-510-514-515-171600-
NORTH INTERIOR
  
CITY           SKY/WX    TMP DP  RH WIND       PRES   REMARKS
BELLINGHAM     LGT RAIN  62  56  80 S16G24    29.84S                  
FRIDAY HARBOR  LGT RAIN  57  55  93 SE8       29.84F                  
EASTSOUND      LGT RAIN  61  59  94 S10       29.83S                  
PORT ANGELES   CLOUDY    59  57  93 SE5       29.83F                  
EDIZ HOOK      CLOUDY    55  54  99 S6        29.82F                  
PORT TOWNSEND  CLOUDY    63  57  82 SE12      29.82F                  
NAS WHIDBEY    CLOUDY    65  56  72 SE17G24   29.88R                  
ARLINGTON      CLOUDY    60  57  89 SE16      29.89S                  
BURLINGTON     CLOUDY    61  59  94 SE7G14    29.87R                  
$$
 
WAZ020-022-039-040-504-511-512-171600-
SOUTHWEST INTERIOR
  
CITY           SKY/WX    TMP DP  RH WIND       PRES   REMARKS
SHELTON        CLOUDY    60  57  89 S6        29.89S FOG              
OLYMPIA        CLOUDY    61  54  77 S15       29.92S                  
CHEHALIS       CLOUDY    63  57  82 S10       29.94S                  
KELSO          CLOUDY    63  56  78 S5        29.98R                  
VANCOUVER      CLOUDY    63  54  72 SE5       29.98S                  
SCAPPOOSE, OR  CLOUDY    63  55  75 SE8       29.97S                  
PORTLAND, OR   CLOUDY    64  54  69 S7        29.98F                  
$$
 
WAZ021-516-517-171600-
WASHINGTON COAST
  
CITY           SKY/WX    TMP DP  RH WIND       PRES   REMARKS
FORKS          RAIN      61  60  97 SW12      29.83R VSB 1            
HOQUIAM        CLOUDY    62  62 100 S14       29.90F FOG              
ASTORIA, OR    LGT RAIN  61  59  93 S12       29.93F FOG              
$$
 
WAZ019-023-024-040-567>569-171600-
CASCADE MOUNTAINS AND COLUMBIA GORGE
  
CITY           SKY/WX    TMP DP  RH WIND       PRES   REMARKS
STAMPEDE PASS  FOG       49  46  90 CALM      29.96S VSB 1/2          
TROUTDALE, OR  CLOUDY    64  54  69 S7        29.99S                  
HOOD RIVER, OR PTSUNNY   64  52  63 NW10G22   29.96S                  
THE DALLES, OR MOSUNNY   68  52  56 NW16G26   29.93S                  
$$

WAZ026-027-041>044-520-521-171600-
EAST SLOPES
  
CITY           SKY/WX    TMP DP  RH WIND       PRES   REMARKS
OMAK           CLOUDY    66  50  56 S9        29.79R                  
WENATCHEE      CLOUDY    66  51  58 NW5       29.82F                  
ELLENSBURG     CLOUDY    63  49  60 NW16G25   29.88S                  
YAKIMA         CLOUDY    65  51  60 CALM      29.87S                  
SUNNYSIDE ARPT PTSUNNY   67  54  61 W3        29.88                   
YAKIMA TC      PTSUNNY   65  47  52 CALM      29.86S                  
$$

WAZ028-034-035-171600-
COLUMBIA BASIN
  
CITY           SKY/WX    TMP DP  RH WIND       PRES   REMARKS
EPHRATA        LGT RAIN  67  51  56 SW8       29.83R                  
MOSES LAKE     CLOUDY    69  52  54 SW12      29.83F                  
PASCO          CLOUDY    72  51  47 SW22      29.87R                  
RICHLAND ARPT  CLOUDY    71  53  54 SW13      29.87                   
HERMISTON, OR  CLOUDY    70  51  51 SW16G22   29.91R                  
$$

WAZ036>038-171600-
NORTHEAST WASHINGTON
  
CITY           SKY/WX    TMP DP  RH WIND       PRES   REMARKS
SPOKANE GEIGER CLOUDY    62  49  62 S15       29.88S                  
SPOKANE FELTS  NOT AVBL                                               
FAIRCHILD AFB  CLOUDY    62  51  66 S14       29.88R                  
COEURDALENE,ID PTSUNNY   63  50  62 S8        29.92R                  
DEER PARK      CLOUDY    58  51  78 SE8       29.89R                  
$$

WAZ029>033-171600-
SOUTHEAST WASHINGTON
  
CITY           SKY/WX    TMP DP  RH WIND       PRES   REMARKS
PULLMAN        PTSUNNY   64  48  56 CALM      29.95R                  
LEWISTON, ID   PTSUNNY   65  51  60 N5        29.91R                  
WALLA WALLA    PTSUNNY   69  50  50 S15       29.93R                  
PENDLETON, OR  PTSUNNY   69  48  47 SW7       29.93S                  
$$